Location: Newark
(45.6000°N, 12.8833°E)
Time: 22:10:44
(UTC+00:00)

S-56A Canister/Altair - Visible Passes

Search period start: 17 November 2019 00:00
Search period end: 27 November 2019 00:00
Orbit: 634 x 2498 km, 38.9° (Epoch: 16 November)

Date Brightness Start Highest point End Pass type
(mag) Time Alt. Az. Time Alt. Az. Time Alt. Az.
17 Nov 9.5 16:32:14 10° SW 16:40:19 34° SSE 16:45:37 12° ESE visible
17 Nov 8.7 18:37:00 10° WSW 18:43:02 42° SSW 18:43:02 42° SSW visible
18 Nov 9.7 15:58:57 10° SW 16:07:32 33° SSE 16:13:36 10° E visible
18 Nov 8.4 18:03:43 10° WSW 18:11:23 47° S 18:12:08 45° SSE visible
18 Nov 10.6 20:09:06 10° W 20:09:34 12° W 20:09:34 12° W visible
19 Nov 8.7 17:30:21 10° WSW 17:38:41 48° S 17:41:14 32° SE visible
19 Nov 10.0 19:35:55 10° W 19:38:39 22° WSW 19:38:39 22° WSW visible
20 Nov 9.0 16:56:56 10° WSW 17:05:57 48° S 17:10:20 20° ESE visible
20 Nov 9.2 19:02:38 10° W 19:07:46 35° SW 19:07:46 35° SW visible
21 Nov 9.3 16:23:26 10° WSW 16:33:09 49° S 16:39:26 11° E visible
21 Nov 8.6 18:29:17 10° W 18:36:52 46° SSW 18:36:52 46° SSW visible
22 Nov 9.5 15:49:55 10° WSW 16:00:17 48° S 16:07:13 10° E visible
22 Nov 8.6 17:55:52 10° W 18:04:17 50° S 18:05:59 41° SSE visible
22 Nov 10.5 20:02:03 10° W 20:03:24 14° WSW 20:03:24 14° WSW visible
23 Nov 8.9 17:22:22 10° W 17:31:34 53° S 17:35:06 27° SE visible
23 Nov 9.9 19:28:38 10° W 19:32:33 24° WSW 19:32:33 24° WSW visible
24 Nov 9.1 16:48:47 10° WSW 16:58:46 55° S 17:04:16 16° ESE visible
24 Nov 9.3 18:55:11 10° W 19:01:42 33° SW 19:01:42 33° SW visible
25 Nov 9.3 16:15:09 10° WSW 16:25:53 57° S 16:32:58 10° ESE visible
25 Nov 9.0 18:21:40 10° W 18:29:38 39° SSW 18:30:54 36° S visible
26 Nov 9.2 17:48:07 10° W 17:56:58 43° SSW 18:00:09 28° SSE visible
26 Nov 10.5 19:55:43 10° WSW 19:57:35 13° WSW 19:57:35 13° WSW visible
